Location: Observatoire
(46.1952°N, 5.3391°E)
Time: 00:37:34
(UTC+01:00)

A-11 Canister half - Pass Details

Date: 22 February 2026
Orbit: 1525 x 1683 km, 47.3° (Epoch: 9 March)

Event Time Altitude Azimuth Distance (km) Brightness Sun altitude
Rises 20:45:17 0° 288° (WNW) 4,687 12.9 -26.6°
Reaches altitude 10° 20:48:20 10° 286° (WNW) 3,697 12.0 -27.1°
Maximum altitude 20:57:35 73° 204° (SSW) 1,585 8.9 -28.7°
Enters shadow 21:00:11 52° 138° (SE) 1,849 9.0 -29.1°
Drops below altitude 10° 21:06:53 10° 122° (ESE) 3,719 - -30.2°
Sets 21:09:58 0° 121° (ESE) 4,717 - -30.7°
